THOR ABLESTAR DEB, 1511

Orbit data source: Space-Track

THOR ABLESTAR DEB, 1511 is space debris in LEO originally from a launch on Fri, 13 Aug 1965 UTC launched from the Air Force Western Test Range (AFWTR). Debris objects in space refer to the collection of defunct objects orbiting the Earth. Examples of debris include non-operational satellites, rocket bodies, and fragments generated from explosions, collisions, or faulty payload assembly.

Loading next visibility...
Identifier
1511, 1965-065D
Orbit
LEO
Country
Flag of USUS
Related business
Manufacturer
NRL
Mission
Spacecraft
Bus & Motor
Unknown
Mass
Unknown
Launch date (UTC)
1965-08-13 (61 years ago)
Launch vehicle
Unknown
Launch site
Air Force Western Test Range (AFWTR)
Object type
Payload
Rocket body
Debris
Shape & HBR
Unknown shape, 0.6 m
Radar Cross Section
Medium (>0.1 m² and <1 m²)

Expand to show TLE details & history
Last TLE update: 7 hours ago

TLE from 7 hours ago
0 THOR ABLESTAR DEB
1 01511U 65065D   26256.15389980  .00000034  00000-0  51098-4 0  9998
2 01511  90.0055 211.5024 0067519 321.2635  50.3158 13.34208002972412
Epoch: 2026-09-13T03:41Z
TLE epoch observation values (Epoch: 2026-09-13T03:41:36.942Z)
Latitude
12.13556°
Longitude
163.94467°
Altitude
1,100.933 km
Speed
7.318 km/s
True Right ascension
14h 06m 00s
True Declination
12° 04' 06"
Sunlit
Object was in daylight at epoch
Visualization orbit readout
Latitude
Unknown
Longitude
Unknown
Altitude
Unknown
Speed
Unknown
Apparent Right ascension
Unknown
Apparent Declination
Unknown
Sunlit
N/A
Visualization observer readout
Local Sidereal Time
03:33:28
Azimuth
Unknown
Elevation
Unknown
Doppler factor
Unknown
Orbital elements
Apogee altitude
1,178.686 km
Perigee altitude
1,077.325 km
Semi-major axis
7,506.143 km
Eccentricity
0.00675
Inclination
90.0055°
RAAN
211.5024°
Arg. of periapsis
321.2635°
True anomaly
50.91444°
Mean anomaly
50.3158°
Eccentric anomaly
50.6148°
Mean motion
3.33747 °/min
Orbital period
107.87 mins
BSTAR
0.000051098
Loading maneuver chart data...
Computing Atmospheric mass density...
Loading historical data...
Loading historical data...
Loading historical data...
Loading historical data...
Loading historical data...
Loading historical data...
Loading historical data...

Documentation

Showing up to 5 results
|